Terug naar catalogus

PEGASUS DEB

ActiefPO
NORAD 39314·DEBRIS·🇺🇸 United States

Gelanceerd May 19, 1994 vanaf Vandenberg Space Force Base

Loading…

Volgende Passages (komende 24 uur)

TLE

VersSource: Space-Track

Epoch: Sep 14, 2026, 10:28 UTC

1 39314U 94029AEZ 26257.43611499  .00001996  00000-0  25106-3 0  9995
2 39314  81.6555 146.1409 0153690 212.9654 146.1902 14.73585954673864

Volg PEGASUS DEB in realtime met AllMySat

Download on the App Store